| time (UTC) | temp F | wind direction | speed MPH | gust MPH | rain 1hr in | rain 24hr in | rain mn in | humidity % | barometer mb |
| 20260506234700 | 58 | 203 | 2.0 | 6.0 | 0.00 | 0.00 | 0.00 | 77 | 1020.7 |
| 20260506234137 | 58 | 217 | 2.0 | 7.0 | 0.00 | 0.00 | 0.00 | 78 | 1020.2 |
| 20260506233237 | 59 | 225 | 2.0 | 7.0 | 0.00 | 0.00 | 0.00 | 77 | 1019.9 |
| 20260506233102 | 58 | 214 | 1.0 | 5.0 | 0.00 | 0.00 | 0.00 | 77 | 1020.5 |
| 20260506232337 | 59 | 223 | 2.0 | 5.0 | 0.00 | 0.00 | 0.00 | 78 | 1020.1 |
| 20260506231502 | 58 | 242 | 1.0 | 6.0 | 0.00 | 0.00 | 0.00 | 77 | 1020.5 |
| 20260506231437 | 59 | 187 | 2.0 | 6.0 | 0.00 | 0.00 | 0.00 | 77 | 1020.0 |
| 20260506230537 | 59 | 201 | 2.0 | 6.0 | 0.00 | 0.00 | 0.00 | 77 | 1020.1 |
| 20260506230115 | 59 | 235 | 2.0 | 6.0 | 0.00 | 0.00 | 0.00 | 76 | 1020.5 |
| 20260506225637 | 59 | 182 | 3.0 | 8.0 | 0.00 | 0.00 | 0.00 | 77 | 1019.9 |
| 20260506224737 | 59 | 212 | 2.0 | 5.0 | 0.00 | 0.00 | 0.00 | 76 | 1020.0 |
| 20260506224700 | 59 | 193 | 2.0 | 6.0 | 0.00 | 0.00 | 0.00 | 76 | 1020.6 |
| 20260506223837 | 60 | 181 | 2.0 | 8.0 | 0.00 | 0.00 | 0.00 | 75 | 1020.1 |
| 20260506223105 | 59 | 188 | 2.0 | 10.0 | 0.00 | 0.00 | 0.00 | 75 | 1020.7 |
| 20260506222037 | 61 | 205 | 3.0 | 8.0 | 0.00 | 0.00 | 0.00 | 73 | 1020.3 |
| 20260506221501 | 62 | 231 | 2.0 | 9.0 | 0.00 | 0.00 | 0.00 | 71 | 1020.9 |
| 20260506221137 | 62 | 197 | 4.0 | 10.0 | 0.00 | 0.00 | 0.00 | 74 | 1020.2 |
| 20260506215337 | 62 | 210 | 2.0 | 6.0 | 0.00 | 0.00 | 0.00 | 73 | 1020.1 |
| 20260506214437 | 60 | 248 | 3.0 | 8.0 | 0.00 | 0.00 | 0.00 | 74 | 1020.0 |
| 20260506213537 | 61 | 289 | 2.0 | 6.0 | 0.00 | 0.00 | 0.00 | 74 | 1020.2 |
| 20260506213106 | 61 | 97 | 1.0 | 6.0 | 0.00 | 0.00 | 0.00 | 73 | 1020.7 |
| 20260506212637 | 62 | 224 | 2.0 | 6.0 | 0.00 | 0.00 | 0.00 | 74 | 1020.2 |
| 20260506211737 | 60 | 252 | 3.0 | 7.0 | 0.00 | 0.00 | 0.00 | 74 | 1020.1 |
| 20260506210837 | 61 | 196 | 2.0 | 8.0 | 0.00 | 0.00 | 0.00 | 74 | 1020.0 |
| 20260506205938 | 61 | 226 | 3.0 | 10.0 | 0.00 | 0.00 | 0.00 | 74 | 1020.1 |
| 20260506205037 | 61 | 275 | 3.0 | 9.0 | 0.00 | 0.00 | 0.00 | 72 | 1020.0 |
| 20260506204504 | 60 | 275 | 2.0 | 8.0 | 0.00 | 0.00 | 0.00 | 74 | 1020.6 |
| 20260506203122 | 61 | 221 | 2.0 | 6.0 | 0.00 | 0.00 | 0.00 | 74 | 1020.4 |
| 20260506202337 | 61 | 229 | 2.0 | 7.0 | 0.00 | 0.00 | 0.00 | 74 | 1019.8 |
| 20260506201501 | 60 | 210 | 2.0 | 7.0 | 0.00 | 0.00 | 0.00 | 72 | 1020.3 |
| 20260506201438 | 60 | 226 | 2.0 | 7.0 | 0.00 | 0.00 | 0.00 | 73 | 1019.7 |
| 20260506200537 | 60 | 219 | 2.0 | 6.0 | 0.00 | 0.00 | 0.00 | 74 | 1019.6 |
| 20260506195637 | 60 | 252 | 2.0 | 8.0 | 0.00 | 0.00 | 0.00 | 74 | 1019.7 |
| 20260506194737 | 60 | 272 | 2.0 | 6.0 | 0.00 | 0.00 | 0.00 | 75 | 1019.7 |
| 20260506194503 | 59 | 270 | 1.0 | 6.0 | 0.00 | 0.00 | 0.00 | 74 | 1020.1 |
| 20260506193837 | 60 | 173 | 2.0 | 8.0 | 0.00 | 0.00 | 0.00 | 75 | 1019.6 |
| 20260506193107 | 58 | 246 | 2.0 | 8.0 | 0.00 | 0.00 | 0.00 | 75 | 1020.1 |
| 20260506192937 | 59 | 228 | 2.0 | 8.0 | 0.00 | 0.00 | 0.00 | 76 | 1019.6 |
| 20260506192037 | 58 | 197 | 2.0 | 5.0 | 0.00 | 0.00 | 0.00 | 78 | 1019.6 |
| 20260506191137 | 57 | 199 | 1.0 | 5.0 | 0.00 | 0.00 | 0.00 | 77 | 1019.6 |
| 20260506190237 | 58 | 210 | 1.0 | 4.0 | 0.00 | 0.00 | 0.00 | 78 | 1019.8 |
| 20260506184503 | 57 | 335 | 1.0 | 5.0 | 0.00 | 0.00 | 0.00 | 77 | 1020.3 |
| 20260506184437 | 58 | 192 | 1.0 | 4.0 | 0.00 | 0.00 | 0.00 | 77 | 1019.7 |
| 20260506183537 | 57 | 215 | 1.0 | 6.0 | 0.00 | 0.00 | 0.00 | 78 | 1019.7 |
| 20260506183109 | 57 | 240 | 2.0 | 6.0 | 0.00 | 0.00 | 0.00 | 76 | 1020.3 |
| 20260506182637 | 58 | 221 | 1.0 | 4.0 | 0.00 | 0.00 | 0.00 | 77 | 1019.6 |
| 20260506181737 | 57 | 200 | 2.0 | 4.0 | 0.00 | 0.00 | 0.00 | 78 | 1019.5 |
| 20260506181500 | 57 | 240 | 1.0 | 7.0 | 0.00 | 0.00 | 0.00 | 77 | 1020.0 |
| 20260506180100 | 57 | 170 | 1.0 | 5.0 | 0.00 | 0.00 | 0.00 | 77 | 1019.9 |
| 20260506174137 | 56 | 226 | 1.0 | 4.0 | 0.00 | 0.00 | 0.00 | 79 | 1019.4 |
| 20260506173238 | 56 | 205 | 1.0 | 4.0 | 0.00 | 0.00 | 0.00 | 80 | 1019.3 |
| 20260506173110 | 56 | 213 | 1.0 | 4.0 | 0.00 | 0.00 | 0.00 | 80 | 1019.9 |
| 20260506172337 | 56 | 235 | 2.0 | 4.0 | 0.00 | 0.00 | 0.00 | 80 | 1019.6 |
| 20260506171502 | 55 | 226 | 1.0 | 7.0 | 0.00 | 0.00 | 0.00 | 81 | 1020.0 |
| 20260506171437 | 55 | 206 | 1.0 | 7.0 | 0.00 | 0.00 | 0.00 | 81 | 1019.5 |
| 20260506170537 | 55 | 239 | 1.0 | 5.0 | 0.00 | 0.00 | 0.00 | 82 | 1019.6 |
| 20260506170110 | 55 | 226 | 2.0 | 5.0 | 0.00 | 0.00 | 0.00 | 81 | 1020.0 |
| 20260506164738 | 55 | 238 | 1.0 | 5.0 | 0.00 | 0.00 | 0.00 | 82 | 1019.5 |
| 20260506164507 | 55 | 164 | 0.0 | 5.0 | 0.00 | 0.00 | 0.00 | 82 | 1020.2 |
| 20260506163837 | 55 | 183 | 1.0 | 4.0 | 0.00 | 0.00 | 0.00 | 83 | 1019.7 |
| 20260506163112 | 55 | 205 | 0.0 | 3.0 | 0.00 | 0.00 | 0.00 | 84 | 1020.0 |
| 20260506162037 | 55 | 0 | 0.0 | 2.0 | 0.00 | 0.00 | 0.00 | 84 | 1019.3 |
| 20260506160238 | 55 | 132 | 1.0 | 5.0 | 0.00 | 0.00 | 0.00 | 85 | 1018.9 |
| 20260506160129 | 54 | 194 | 0.0 | 5.0 | 0.00 | 0.00 | 0.00 | 86 | 1019.5 |
| 20260506155338 | 55 | 143 | 0.0 | 5.0 | 0.00 | 0.00 | 0.00 | 85 | 1018.9 |
| 20260506154502 | 54 | 179 | 0.0 | 3.0 | 0.00 | 0.00 | 0.00 | 86 | 1019.4 |
| 20260506154437 | 55 | 0 | 0.0 | 3.0 | 0.00 | 0.00 | 0.00 | 86 | 1018.9 |
| 20260506153538 | 54 | 0 | 0.0 | 0.0 | 0.00 | 0.00 | 0.00 | 87 | 1018.9 |
| 20260506153100 | 53 | 129 | 0.0 | 0.0 | 0.00 | 0.00 | 0.00 | 88 | 1019.6 |
| 20260506152638 | 54 | 0 | 0.0 | 0.0 | 0.00 | 0.00 | 0.00 | 88 | 1019.0 |
| 20260506151737 | 53 | 0 | 0.0 | 0.0 | 0.00 | 0.00 | 0.00 | 88 | 1019.1 |
| 20260506150109 | 52 | 146 | 1.0 | 4.0 | 0.00 | 0.00 | 0.00 | 89 | 1019.6 |
| 20260506145938 | 53 | 198 | 0.0 | 3.0 | 0.00 | 0.00 | 0.00 | 89 | 1018.9 |
| 20260506145038 | 52 | 153 | 1.0 | 6.0 | 0.00 | 0.00 | 0.00 | 90 | 1018.9 |
| 20260506144501 | 52 | 105 | 1.0 | 6.0 | 0.00 | 0.00 | 0.00 | 90 | 1019.4 |
| 20260506144138 | 52 | 0 | 0.0 | 5.0 | 0.00 | 0.00 | 0.00 | 91 | 1018.8 |
| 20260506143238 | 52 | 0 | 0.0 | 0.0 | 0.00 | 0.00 | 0.00 | 91 | 1019.0 |
| 20260506143102 | 52 | 170 | 0.0 | 0.0 | 0.00 | 0.00 | 0.00 | 91 | 1019.5 |
| 20260506141500 | 52 | 172 | 0.0 | 2.0 | 0.00 | 0.00 | 0.00 | 91 | 1019.0 |
| 20260506141438 | 52 | 0 | 0.0 | 2.0 | 0.00 | 0.00 | 0.00 | 91 | 1018.5 |
| 20260506140538 | 52 | 0 | 0.0 | 0.0 | 0.00 | 0.00 | 0.00 | 91 | 1018.5 |
| 20260506140101 | 52 | 141 | 0.0 | 0.0 | 0.00 | 0.00 | 0.00 | 91 | 1019.1 |
| 20260506135638 | 52 | 0 | 0.0 | 0.0 | 0.00 | 0.00 | 0.00 | 91 | 1018.5 |
| 20260506134738 | 52 | 0 | 0.0 | 1.0 | 0.00 | 0.00 | 0.00 | 91 | 1018.6 |
| 20260506134501 | 52 | 174 | 0.0 | 1.0 | 0.00 | 0.00 | 0.00 | 90 | 1019.1 |
| 20260506133838 | 52 | 0 | 0.0 | 1.0 | 0.00 | 0.00 | 0.00 | 90 | 1018.4 |
| 20260506133115 | 52 | 151 | 0.0 | 1.0 | 0.00 | 0.00 | 0.00 | 90 | 1019.1 |
| 20260506132938 | 52 | 0 | 0.0 | 2.0 | 0.00 | 0.00 | 0.00 | 90 | 1018.6 |
| 20260506132038 | 52 | 0 | 0.0 | 3.0 | 0.00 | 0.00 | 0.00 | 90 | 1018.5 |
| 20260506131501 | 52 | 240 | 0.0 | 2.0 | 0.00 | 0.00 | 0.00 | 90 | 1019.0 |
| 20260506131138 | 52 | 0 | 0.0 | 2.0 | 0.00 | 0.00 | 0.00 | 90 | 1018.4 |
| 20260506130238 | 52 | 0 | 0.0 | 1.0 | 0.00 | 0.00 | 0.00 | 90 | 1018.3 |
| 20260506130101 | 52 | 209 | 0.0 | 1.0 | 0.00 | 0.00 | 0.00 | 90 | 1018.8 |
| 20260506125338 | 52 | 0 | 0.0 | 1.0 | 0.00 | 0.00 | 0.00 | 90 | 1018.1 |
| 20260506124501 | 52 | 143 | 0.0 | 3.0 | 0.00 | 0.00 | 0.00 | 90 | 1018.4 |
| 20260506124438 | 52 | 0 | 0.0 | 4.0 | 0.00 | 0.00 | 0.00 | 90 | 1017.9 |
| 20260506123101 | 52 | 232 | 0.0 | 4.0 | 0.00 | 0.00 | 0.00 | 89 | 1018.7 |
| 20260506121500 | 52 | 178 | 0.0 | 3.0 | 0.00 | 0.00 | 0.00 | 89 | 1018.4 |
| 20260506120838 | 53 | 0 | 0.0 | 2.0 | 0.00 | 0.00 | 0.00 | 89 | 1017.9 |
| 20260506120111 | 52 | 179 | 0.0 | 1.0 | 0.00 | 0.00 | 0.00 | 89 | 1018.3 |
| 20260506115938 | 53 | 0 | 0.0 | 2.0 | 0.00 | 0.00 | 0.00 | 89 | 1017.8 |
| 20260506115038 | 53 | 0 | 0.0 | 2.0 | 0.00 | 0.00 | 0.00 | 89 | 1017.7 |
| 20260506114502 | 53 | 133 | 0.0 | 2.0 | 0.00 | 0.00 | 0.00 | 89 | 1018.1 |
| 20260506114138 | 53 | 0 | 0.0 | 2.0 | 0.00 | 0.00 | 0.00 | 89 | 1017.5 |
| 20260506113238 | 53 | 183 | 0.0 | 3.0 | 0.00 | 0.00 | 0.00 | 89 | 1017.4 |
| 20260506113101 | 53 | 196 | 0.0 | 3.0 | 0.00 | 0.00 | 0.00 | 89 | 1017.9 |
| 20260506112338 | 53 | 0 | 0.0 | 3.0 | 0.00 | 0.00 | 0.00 | 89 | 1017.5 |
| 20260506111501 | 53 | 179 | 0.0 | 1.0 | 0.00 | 0.00 | 0.00 | 89 | 1017.9 |
| 20260506111438 | 53 | 0 | 0.0 | 1.0 | 0.00 | 0.00 | 0.00 | 89 | 1017.4 |
| 20260506110538 | 53 | 0 | 0.0 | 2.0 | 0.00 | 0.00 | 0.00 | 89 | 1017.5 |
| 20260506110115 | 53 | 174 | 0.0 | 3.0 | 0.00 | 0.00 | 0.00 | 89 | 1017.9 |
| 20260506105638 | 53 | 0 | 0.0 | 2.0 | 0.00 | 0.00 | 0.00 | 89 | 1017.3 |
| 20260506104738 | 53 | 0 | 0.0 | 3.0 | 0.00 | 0.00 | 0.00 | 89 | 1017.4 |
| 20260506104502 | 53 | 114 | 0.0 | 3.0 | 0.00 | 0.00 | 0.00 | 89 | 1017.8 |
| 20260506103838 | 53 | 0 | 0.0 | 2.0 | 0.00 | 0.00 | 0.00 | 89 | 1017.3 |
| 20260506103101 | 53 | 129 | 0.0 | 2.0 | 0.00 | 0.00 | 0.00 | 89 | 1017.8 |
| 20260506102038 | 53 | 0 | 0.0 | 0.0 | 0.00 | 0.00 | 0.00 | 89 | 1017.2 |
| 20260506101504 | 53 | 148 | 0.0 | 0.0 | 0.00 | 0.00 | 0.00 | 89 | 1017.5 |
| 20260506101138 | 53 | 0 | 0.0 | 0.0 | 0.00 | 0.00 | 0.00 | 89 | 1017.2 |
| 20260506100238 | 53 | 0 | 0.0 | 1.0 | 0.00 | 0.00 | 0.00 | 88 | 1017.2 |
| 20260506100113 | 53 | 143 | 0.0 | 1.0 | 0.00 | 0.00 | 0.00 | 88 | 1017.7 |
| 20260506095338 | 53 | 0 | 0.0 | 0.0 | 0.00 | 0.00 | 0.00 | 89 | 1017.0 |
| 20260506094502 | 53 | 142 | 0.0 | 2.0 | 0.00 | 0.00 | 0.00 | 88 | 1017.6 |
| 20260506094438 | 53 | 0 | 0.0 | 2.0 | 0.00 | 0.00 | 0.00 | 88 | 1017.0 |
| 20260506093538 | 53 | 0 | 0.0 | 1.0 | 0.00 | 0.00 | 0.00 | 88 | 1017.0 |
| 20260506093102 | 53 | 184 | 0.0 | 2.0 | 0.00 | 0.00 | 0.00 | 88 | 1017.5 |
| 20260506092638 | 53 | 0 | 0.0 | 2.0 | 0.00 | 0.00 | 0.00 | 88 | 1017.0 |
| 20260506091738 | 53 | 155 | 0.0 | 2.0 | 0.00 | 0.00 | 0.00 | 88 | 1017.1 |
| 20260506091502 | 53 | 111 | 0.0 | 2.0 | 0.00 | 0.00 | 0.00 | 88 | 1017.4 |
| 20260506090838 | 53 | 217 | 1.0 | 4.0 | 0.00 | 0.00 | 0.00 | 88 | 1017.0 |
| 20260506090106 | 53 | 219 | 1.0 | 4.0 | 0.00 | 0.00 | 0.00 | 87 | 1017.6 |
| 20260506085938 | 54 | 210 | 1.0 | 4.0 | 0.00 | 0.00 | 0.00 | 87 | 1017.1 |
| 20260506085038 | 54 | 150 | 0.0 | 3.0 | 0.00 | 0.00 | 0.00 | 87 | 1017.1 |
| 20260506084502 | 53 | 169 | 0.0 | 3.0 | 0.00 | 0.00 | 0.00 | 87 | 1017.5 |
| 20260506084138 | 54 | 170 | 1.0 | 4.0 | 0.00 | 0.00 | 0.00 | 87 | 1017.0 |
| 20260506083238 | 54 | 166 | 0.0 | 3.0 | 0.00 | 0.00 | 0.00 | 87 | 1016.7 |
| 20260506083101 | 53 | 191 | 1.0 | 4.0 | 0.00 | 0.00 | 0.00 | 87 | 1017.2 |
| 20260506082338 | 54 | 157 | 0.0 | 2.0 | 0.00 | 0.00 | 0.00 | 87 | 1016.7 |
| 20260506081502 | 53 | 226 | 0.0 | 3.0 | 0.00 | 0.00 | 0.00 | 87 | 1017.3 |
| 20260506080106 | 54 | 218 | 1.0 | 4.0 | 0.00 | 0.00 | 0.00 | 86 | 1016.9 |
| 20260506073101 | 54 | 184 | 0.0 | 3.0 | 0.00 | 0.00 | 0.00 | 86 | 1016.6 |
| 20260506072938 | 54 | 176 | 0.0 | 3.0 | 0.00 | 0.00 | 0.00 | 86 | 1016.1 |
| 20260506071502 | 54 | 167 | 0.0 | 4.0 | 0.00 | 0.00 | 0.00 | 87 | 1016.6 |
| 20260506071138 | 54 | 0 | 0.0 | 3.0 | 0.00 | 0.00 | 0.00 | 86 | 1016.1 |
| 20260506070238 | 54 | 0 | 0.0 | 4.0 | 0.00 | 0.00 | 0.00 | 87 | 1016.1 |
| 20260506070105 | 54 | 205 | 1.0 | 4.0 | 0.00 | 0.00 | 0.00 | 87 | 1016.6 |
| 20260506061738 | 54 | 0 | 0.0 | 6.0 | 0.00 | 0.00 | 0.00 | 88 | 1015.9 |
| 20260506061503 | 53 | 193 | 0.0 | 6.0 | 0.00 | 0.00 | 0.00 | 89 | 1016.3 |
| 20260506060838 | 53 | 0 | 0.0 | 3.0 | 0.00 | 0.00 | 0.00 | 89 | 1015.9 |
| 20260506060104 | 53 | 167 | 0.0 | 3.0 | 0.00 | 0.00 | 0.00 | 90 | 1016.4 |
| 20260506050538 | 54 | 0 | 0.0 | 1.0 | 0.00 | 0.00 | 0.00 | 88 | 1015.6 |
| 20260506050125 | 53 | 153 | 0.0 | 1.0 | 0.00 | 0.00 | 0.00 | 88 | 1016.2 |
| 20260506044738 | 54 | 141 | 1.0 | 2.0 | 0.00 | 0.00 | 0.00 | 87 | 1015.5 |
| 20260506044503 | 54 | 128 | 0.0 | 2.0 | 0.00 | 0.00 | 0.00 | 87 | 1016.1 |
| 20260506043101 | 54 | 172 | 0.0 | 3.0 | 0.00 | 0.00 | 0.00 | 86 | 1016.0 |
| 20260506042939 | 55 | 0 | 0.0 | 2.0 | 0.00 | 0.00 | 0.00 | 86 | 1015.5 |
| 20260506042038 | 55 | 0 | 0.0 | 3.0 | 0.00 | 0.00 | 0.00 | 86 | 1015.3 |
| 20260506041502 | 55 | 203 | 0.0 | 5.0 | 0.00 | 0.00 | 0.00 | 85 | 1015.6 |
| 20260506041139 | 56 | 0 | 0.0 | 5.0 | 0.00 | 0.00 | 0.00 | 85 | 1015.2 |
| 20260506040238 | 56 | 0 | 0.0 | 2.0 | 0.00 | 0.00 | 0.00 | 85 | 1014.9 |
| 20260506034502 | 56 | 172 | 0.0 | 1.0 | 0.00 | 0.00 | 0.00 | 84 | 1015.3 |
| 20260506034438 | 57 | 0 | 0.0 | 1.0 | 0.00 | 0.00 | 0.00 | 84 | 1014.8 |
| 20260506033538 | 57 | 0 | 0.0 | 3.0 | 0.00 | 0.00 | 0.00 | 83 | 1014.8 |
| 20260506032638 | 58 | 0 | 0.0 | 3.0 | 0.00 | 0.00 | 0.00 | 82 | 1014.7 |
| 20260506031739 | 58 | 0 | 0.0 | 2.0 | 0.00 | 0.00 | 0.00 | 82 | 1014.7 |
| 20260506031503 | 58 | 167 | 0.0 | 2.0 | 0.00 | 0.00 | 0.00 | 81 | 1015.2 |
| 20260506030838 | 59 | 0 | 0.0 | 2.0 | 0.00 | 0.00 | 0.00 | 81 | 1014.5 |
| 20260506025939 | 59 | 0 | 0.0 | 2.0 | 0.00 | 0.00 | 0.00 | 80 | 1014.5 |
| 20260506025038 | 60 | 0 | 0.0 | 3.0 | 0.00 | 0.00 | 0.00 | 79 | 1014.5 |
| 20260506024502 | 60 | 239 | 0.0 | 3.0 | 0.00 | 0.00 | 0.00 | 78 | 1015.0 |
| 20260506024139 | 60 | 358 | 1.0 | 3.0 | 0.00 | 0.00 | 0.00 | 78 | 1014.3 |
| 20260506023239 | 60 | 309 | 1.0 | 4.0 | 0.00 | 0.00 | 0.00 | 77 | 1014.3 |
| 20260506023110 | 60 | 253 | 1.0 | 6.0 | 0.00 | 0.00 | 0.00 | 77 | 1014.9 |
| 20260506022339 | 61 | 255 | 2.0 | 5.0 | 0.00 | 0.00 | 0.00 | 76 | 1014.4 |
| 20260506021502 | 62 | 250 | 2.0 | 5.0 | 0.00 | 0.00 | 0.00 | 74 | 1015.0 |
| 20260506021438 | 62 | 289 | 1.0 | 5.0 | 0.00 | 0.00 | 0.00 | 74 | 1014.4 |
| 20260506015639 | 64 | 305 | 2.0 | 4.0 | 0.00 | 0.00 | 0.00 | 73 | 1014.3 |
| 20260506014738 | 64 | 282 | 2.0 | 6.0 | 0.00 | 0.00 | 0.00 | 72 | 1014.3 |
| 20260506014501 | 64 | 328 | 2.0 | 6.0 | 0.00 | 0.00 | 0.00 | 71 | 1014.8 |
| 20260506013838 | 65 | 274 | 1.0 | 5.0 | 0.00 | 0.00 | 0.00 | 71 | 1014.2 |
| 20260506013111 | 65 | 303 | 0.0 | 4.0 | 0.00 | 0.00 | 0.00 | 70 | 1014.7 |
| 20260506012938 | 66 | 252 | 1.0 | 4.0 | 0.00 | 0.00 | 0.00 | 70 | 1014.3 |
| 20260506012039 | 66 | 252 | 1.0 | 6.0 | 0.00 | 0.00 | 0.00 | 70 | 1014.1 |
| 20260506011501 | 65 | 243 | 1.0 | 4.0 | 0.00 | 0.00 | 0.00 | 70 | 1014.7 |
| 20260506010238 | 66 | 268 | 1.0 | 4.0 | 0.00 | 0.00 | 0.00 | 71 | 1014.2 |
| 20260506010103 | 65 | 156 | 1.0 | 4.0 | 0.00 | 0.00 | 0.00 | 71 | 1014.7 |
| 20260506005338 | 65 | 264 | 1.0 | 5.0 | 0.00 | 0.00 | 0.00 | 70 | 1014.3 |
| 20260506004503 | 65 | 185 | 1.0 | 7.0 | 0.00 | 0.00 | 0.00 | 71 | 1014.9 |
| 20260506004439 | 65 | 257 | 2.0 | 7.0 | 0.00 | 0.00 | 0.00 | 71 | 1014.4 |
| 20260506003538 | 65 | 271 | 2.0 | 6.0 | 0.00 | 0.00 | 0.00 | 70 | 1014.4 |
| 20260506003105 | 65 | 288 | 1.0 | 6.0 | 0.00 | 0.00 | 0.00 | 73 | 1014.8 |
| 20260506002638 | 64 | 277 | 2.0 | 5.0 | 0.00 | 0.00 | 0.00 | 74 | 1014.4 |
| 20260506001502 | 64 | 339 | 2.0 | 4.0 | 0.00 | 0.00 | 0.00 | 73 | 1014.9 |
| 20260506000839 | 64 | 277 | 2.0 | 6.0 | 0.00 | 0.00 | 0.00 | 74 | 1014.5 |
| 20260505235939 | 64 | 260 | 2.0 | 7.0 | 0.00 | 0.00 | 0.00 | 75 | 1014.5 |
| 20260505235038 | 64 | 288 | 2.0 | 8.0 | 0.00 | 0.00 | 0.00 | 74 | 1014.6 |